Dewpoint
40 41 41 42 41 41 39 38 31 37 42 35 33 30 28 27 20 18 16 21 20 20 20 19 19 19 21 27 30 32 35 26 23 25 26 23 23 24 25 28 28 27 30 26
40 40 41 43 43 41 40 35 28 35 44 31 29 26 24 23 21 19 18 19 19 19 18 17 19 20 24 25 25 30 31 27 24 22 26 28 24 25 25 28 34 35 32 30
40 41 41 41 42 41 43 36 31 28 39 32 29 27 24 23 21 19 20 18 19 17 18 20 20 20 22 24 23 38 32 34 29 23 28 34 31 26 30 30 34 35 35 33
40 41 41 41 42 43 42 36 31 29 30 28 28 27 31 24 20 23 20 20 18 17 19 17 18 19 19 22 32 30 35 35 32 30 30 28 28 29 27 28 34 33 30 29
41 40 40 41 42 42 39 32 30 25 23 29 30 27 26 23 26 23 22 19 17 19 17 19 18 22 29 24 28 26 36 32 33 31 30 25 23 28 35 34 24 25 30 33
39 39 40 41 41 42 38 39 34 35 29 28 24 28 24 19 21 25 30 26 25 20 25 32 32 31 35 34 32 29 30 31 33 28 28 26 24 23 28 30 22 22 22 23
39 39 40 42 41 41 39 40 37 32 26 22 22 21 26 28 21 20 19 30 30 34 37 34 31 28 28 28 28 28 27 26 31 29 32 23 22 20 21 23 23 23 23 24
39 39 40 41 41 41 42 41 39 34 28 22 21 21 24 24 28 27 25 27 36 39 38 31 23 25 26 26 26 26 28 27 29 30 27 29 26 20 17 18 20 20 17 19
41 41 40 41 41 41 42 43 43 35 32 26 21 23 25 27 27 27 26 32 39 37 35 30 22 19 19 19 22 26 27 31 29 28 24 23 22 23 23 20 19 24 28 29
41 41 41 41 41 41 42 41 42 38 32 28 26 30 32 33 32 29 28 35 35 37 33 29 25 22 22 23 24 25 27 29 27 27 25 23 18 20 23 21 30 34 33 34
43 42 41 41 41 41 42 39 43 40 35 30 28 26 27 28 33 34 34 35 34 35 30 28 25 27 27 26 28 28 25 27 27 26 23 21 20 23 22 38 39 37 37 37
43 43 41 41 41 41 41 38 41 43 38 29 33 32 30 28 31 36 38 32 35 35 32 30 31 32 34 27 24 35 31 26 26 24 23 32 31 37 38 38 38 37 36 35
44 44 42 41 41 42 41 34 38 41 37 34 32 29 31 31 33 37 35 34 35 36 38 38 37 32 32 27 24 30 36 35 27 30 28 24 37 38 36 36 36 35 34 35
44 43 42 41 41 41 40 39 38 41 36 29 28 29 31 32 32 33 36 35 36 40 39 37 37 33 35 34 30 32 35 37 31 31 34 38 40 40 35 34 34 34 34 34
43 43 42 41 41 41 42 44 41 43 32 29 31 34 33 28 35 32 34 38 37 38 37 36 34 35 35 35 32 28 30 35 34 34 37 39 38 35 34 34 33 32 32 31
43 42 42 42 42 42 42 35 42 43 42 35 28 35 37 36 36 36 34 36 40 39 37 36 35 34 35 32 31 37 37 32 34 34 33 35 35 34 34 33 32 31 30 28
43 42 42 42 42 43 37 36 41 42 44 35 29 25 32 36 37 38 39 40 40 38 37 37 35 36 36 36 29 36 32 29 32 30 31 34 33 32 31 31 31 31 27 26
43 43 43 43 43 42 39 43 43 42 39 37 30 31 35 37 36 37 40 38 39 38 37 37 37 35 36 32 32 28 26 28 28 28 29 31 31 29 27 27 28 26 24 23
43 44 44 43 40 38 40 44 43 44 38 32 34 31 30 36 35 37 39 39 34 39 37 35 34 37 31 27 26 25 25 25 25 26 29 27 28 26 25 24 24 24 22 21
44 40 36 33 39 44 42 40 35 37 37 37 33 34 33 34 37 35 34 36 32 29 32 37 34 27 26 25 24 25 24 24 25 25 25 25 26 25 23 22 22 21 20 20
40 37 36 42 44 40 37 33 33 34 33 33 33 35 34 38 35 32 37 33 34 26 32 32 31 24 24 22 21 22 23 23 25 25 25 25 25 25 22 21 20 20 19 19
41 40 41 41 37 35 32 32 33 31 27 33 34 35 36 37 39 35 35 30 32 24 34 31 24 23 22 21 21 22 22 23 23 23 22 23 23 22 20 19 19 19 19 19
39 37 35 35 34 30 29 25 27 30 34 34 37 34 37 36 37 35 34 30 28 33 30 24 22 21 22 23 20 21 21 21 20 19 19 19 19 19 18 18 19 19 18 19
30 30 24 29 25 25 26 28 29 32 34 35 37 34 34 34 33 34 30 31 32 27 25 21 22 22 22 23 21 19 20 20 19 19 19 18 18 17 18 18 18 17 15 16
25 26 22 22 26 27 28 31 31 31 34 35 34 34 35 33 30 30 29 26 26 21 19 21 22 22 21 21 21 20 20 20 19 19 18 18 17 17 17 18 18 17 16 16
23 25 24 28 27 27 29 31 29 32 33 34 35 32 29 27 28 26 23 25 20 20 22 22 21 21 21 21 21 21 21 20 20 20 19 18 17 17 17 17 17 16 16 15
22 23 28 28 26 26 28 29 29 33 33 31 32 26 23 28 24 18 20 20 21 23 23 23 22 21 21 22 22 22 22 22 21 21 21 20 20 20 17 15 14 13 13 13
Lifted_Index
8 7 6 6 5 5 5 5 4 2 1 2 3 4 4 4 3 3 3 3 3 3 3 3 3 3 3 3 3 2 1 2 2 1 1 1 2 2 2 1 1 0 -0 -0
7 6 6 5 5 5 5 4 4 2 1 1 2 3 3 3 3 3 3 3 3 3 3 3 3 3 3 3 3 2 2 2 2 1 0 0 1 1 1 1 1 0 -0 -0
6 5 5 5 4 4 4 4 3 2 1 1 1 2 2 3 3 3 3 3 3 3 3 3 3 3 3 3 4 3 2 1 1 1 1 0 1 1 1 1 1 0 0 -0
5 5 4 4 4 4 4 4 3 2 1 1 1 1 1 1 2 2 2 2 2 2 2 2 2 2 3 3 3 3 2 1 1 1 1 1 1 0 0 0 0 0 0 0
4 4 4 4 3 3 4 4 3 2 1 1 1 1 1 1 1 1 1 1 2 2 2 1 2 2 2 3 3 3 2 1 1 1 1 1 1 1 1 0 0 -0 -0 0
4 4 4 3 3 3 3 3 2 2 1 1 0 0 0 0 0 0 0 0 1 1 1 1 1 2 2 3 3 3 2 2 1 1 0 1 1 1 1 0 -0 -0 -0 -0
4 4 4 3 3 3 2 2 1 1 1 1 0 0 0 0 0 0 0 0 0 0 0 0 1 2 2 3 3 3 3 3 2 1 1 1 1 1 1 0 -0 -0 -1 -1
4 4 4 3 3 2 2 1 1 1 1 0 0 0 0 -0 -0 0 0 0 0 0 0 0 1 1 2 2 2 2 2 2 2 1 1 0 1 1 1 0 -0 -0 -0 -0
4 4 3 3 3 2 2 1 1 1 0 0 0 0 0 0 -0 0 0 0 0 0 1 1 1 1 1 1 1 1 1 1 1 1 1 0 0 0 0 0 -0 -0 0 0
4 3 3 3 2 2 2 1 0 0 0 0 0 0 1 0 0 0 0 0 0 1 1 1 1 1 0 0 0 0 0 0 1 1 1 0 0 0 0 -0 -0 -0 0 1
3 3 3 3 2 2 1 1 0 0 0 1 1 1 2 2 1 0 0 0 0 1 1 1 1 0 -0 -0 -0 0 0 0 0 1 1 0 0 -0 -0 -0 -0 1 1 1
3 3 3 3 2 2 1 1 1 0 1 1 2 2 2 3 2 1 1 1 1 1 1 1 0 -0 -0 -0 -0 0 0 0 0 0 0 -0 -1 -1 -0 -0 1 1 2 1
3 3 3 3 2 2 2 1 1 1 2 2 3 3 3 3 3 2 2 2 2 2 1 1 -0 -0 -0 -0 -0 -0 0 -0 -0 -0 -0 -0 -1 -1 -0 0 1 2 3 3
3 3 4 3 2 2 2 2 2 2 2 3 3 3 3 3 3 3 3 3 3 2 2 1 0 -0 -0 -0 0 -0 -0 0 -0 -0 -0 -0 0 1 1 1 2 3 4 4
4 4 4 3 3 2 2 2 2 2 2 3 3 3 3 3 3 3 3 3 3 2 2 1 1 0 0 0 0 0 0 0 -0 -0 0 1 1 2 2 3 3 4 4 5
4 4 4 3 3 3 3 3 2 2 2 3 3 2 2 2 3 3 3 3 3 2 2 1 1 0 0 0 0 1 1 1 1 1 1 1 2 3 3 4 4 5 5 5
4 4 4 4 3 3 4 3 2 2 3 3 3 3 2 2 2 2 3 3 3 2 2 2 1 1 0 1 1 1 1 1 2 2 2 2 3 4 4 4 5 5 5 6
4 4 4 3 3 3 3 2 2 2 3 3 3 2 2 2 2 2 2 2 3 2 2 2 1 1 1 1 2 2 2 2 2 3 3 3 4 4 4 5 5 5 5 6
3 3 3 3 3 3 2 2 2 2 3 3 3 2 1 1 1 1 2 2 2 3 2 2 2 2 2 2 2 2 2 3 3 3 4 4 4 4 4 5 5 5 5 6
3 3 3 2 2 2 2 2 2 3 3 3 2 1 1 1 1 1 2 2 2 2 2 2 2 3 3 3 3 3 3 3 4 4 4 4 4 4 5 5 6 6 7 7
3 3 3 2 2 2 2 2 2 2 2 2 1 1 1 1 1 1 1 1 2 2 2 2 2 3 3 3 3 4 4 5 5 5 6 6 6 6 6 7 8 9 9 9
2 2 2 2 2 1 1 1 1 1 1 1 1 1 1 1 1 1 1 1 1 1 2 2 2 3 3 4 5 5 6 7 7 7 8 8 8 9 9 9 10 11 12 13
2 2 2 1 1 1 1 1 1 1 1 1 1 1 1 2 2 1 1 1 1 1 2 2 2 3 4 5 6 7 8 8 8 9 9 10 10 11 12 12 13 14 14 15
2 1 1 1 1 1 1 1 1 1 2 2 2 2 2 2 2 2 2 2 2 2 2 2 3 4 6 7 8 8 9 9 10 10 11 11 12 12 13 14 15 15 15 15
1 1 1 1 2 2 1 1 1 2 2 2 2 2 2 2 2 2 2 2 1 1 2 3 5 7 8 9 10 10 10 11 11 12 12 12 13 13 14 15 16 16 16 16
2 2 2 2 2 2 2 2 2 2 2 2 2 2 2 2 2 2 2 1 1 2 3 6 8 9 10 11 11 12 12 12 12 13 13 13 14 14 14 15 16 16 16 17
2 2 3 3 3 2 2 2 3 3 3 2 2 2 2 2 2 2 1 1 1 3 5 8 10 11 11 12 13 13 13 13 13 13 14 14 14 14 15 15 16 17 17 18